Location: Kerguer�zec
(48.4509°N, 4.7600°W)
Time: 00:07:34
(UTC+00:00)

N. Korean satellite - Pass Details

Date: 12 March 2021
Orbit: 453 x 499 km, 97.2° (Epoch: 11 April)

Event Time Altitude Azimuth Distance (km) Brightness Sun altitude
Rises 06:02:33 0° 10° (N) 2,553 10.4 -6.8°
Reaches altitude 10° 06:04:37 10° 8° (N) 1,676 9.4 -6.4°
Maximum altitude 06:08:12 67° 286° (WNW) 535 6.6 -5.8°
Drops below altitude 10° 06:11:48 10° 203° (SSW) 1,685 9.1 -5.2°
Sets 06:13:53 0° 201° (SSW) 2,568 10.0 -4.9°
